Temp
-10 -10 -10 -10 -10 -10 -10 -9 -10 -10 -10 -10 -10 -10 -10 -10 -9 -9 -10 -9 -9 -9 -9 -9 -9 -9 -9 -10 -10 -10 -10 -10 -10 -9 -9 -10 -10 -10 -10 -9 -9 -9 -9
-10 -10 -10 -10 -10 -10 -10 -10 -10 -10 -10 -10 -10 -10 -10 -10 -10 -9 -10 -10 -9 -9 -9 -9 -9 -10 -10 -10 -10 -10 -10 -10 -10 -10 -10 -10 -10 -10 -10 -10 -10 -10 -10
-10 -10 -10 -10 -10 -10 -10 -10 -10 -10 -10 -10 -10 -10 -10 -10 -10 -10 -10 -10 -10 -10 -10 -10 -10 -10 -10 -10 -10 -10 -10 -10 -10 -10 -10 -10 -10 -10 -10 -10 -10 -10 -10
-10 -10 -10 -10 -10 -9 -9 -10 -10 -10 -10 -10 -10 -10 -10 -10 -10 -10 -10 -10 -10 -10 -10 -10 -10 -10 -10 -10 -10 -10 -10 -10 -11 -11 -11 -10 -10 -10 -10 -10 -11 -10 -10
-10 -10 -10 -9 -9 -9 -9 -10 -10 -10 -10 -10 -10 -11 -11 -11 -10 -10 -10 -10 -10 -10 -10 -10 -10 -10 -10 -10 -10 -10 -10 -11 -11 -11 -11 -11 -11 -11 -11 -10 -11 -10 -10
-10 -10 -10 -10 -10 -9 -10 -10 -10 -10 -11 -11 -11 -11 -11 -11 -11 -11 -11 -11 -11 -11 -11 -10 -11 -11 -11 -11 -11 -11 -11 -11 -11 -11 -11 -11 -11 -11 -11 -10 -11 -11 -11
-10 -10 -10 -10 -10 -10 -10 -10 -11 -11 -11 -11 -11 -11 -11 -11 -11 -11 -11 -11 -11 -11 -11 -11 -11 -11 -11 -11 -11 -11 -11 -11 -11 -11 -11 -11 -11 -11 -11 -11 -11 -11 -11
-10 -10 -10 -10 -10 -10 -10 -11 -11 -11 -11 -11 -11 -11 -11 -11 -11 -11 -11 -11 -11 -11 -11 -11 -11 -11 -11 -11 -11 -11 -11 -11 -11 -11 -11 -11 -11 -11 -11 -12 -12 -11 -11
-10 -10 -11 -11 -11 -11 -11 -11 -11 -11 -11 -11 -11 -11 -11 -12 -11 -11 -11 -11 -11 -12 -12 -12 -12 -11 -11 -11 -11 -11 -11 -11 -11 -11 -11 -11 -11 -11 -12 -12 -12 -12 -12
-10 -10 -11 -11 -11 -11 -11 -11 -11 -11 -11 -11 -11 -11 -12 -12 -12 -12 -12 -12 -11 -12 -12 -12 -12 -11 -11 -11 -11 -11 -11 -11 -11 -11 -11 -11 -11 -11 -12 -12 -12 -12 -12
-11 -11 -11 -11 -11 -11 -11 -12 -12 -12 -12 -12 -11 -11 -12 -12 -12 -12 -12 -12 -12 -12 -12 -12 -12 -12 -11 -11 -11 -11 -11 -11 -11 -11 -11 -11 -11 -11 -12 -12 -12 -12 -12
-11 -11 -11 -11 -11 -11 -11 -12 -12 -12 -12 -12 -12 -12 -12 -12 -12 -12 -12 -12 -12 -12 -12 -12 -12 -11 -11 -11 -11 -11 -11 -11 -11 -11 -11 -11 -11 -12 -11 -12 -12 -12 -12
-11 -12 -11 -11 -11 -11 -11 -12 -12 -12 -12 -12 -12 -12 -12 -12 -12 -12 -12 -12 -12 -12 -12 -12 -11 -11 -11 -11 -11 -11 -11 -12 -12 -12 -12 -12 -11 -12 -12 -12 -12 -12 -12
-12 -12 -12 -12 -12 -12 -12 -12 -12 -12 -12 -13 -12 -12 -12 -12 -12 -12 -12 -12 -12 -12 -12 -12 -11 -11 -11 -11 -11 -11 -11 -11 -12 -12 -12 -11 -11 -11 -12 -12 -12 -12 -12
-13 -12 -13 -12 -12 -12 -12 -12 -12 -13 -13 -13 -12 -12 -12 -13 -12 -12 -12 -12 -12 -12 -12 -12 -11 -11 -11 -11 -11 -11 -11 -12 -12 -12 -12 -12 -12 -12 -12 -12 -12 -12 -13
-13 -13 -13 -13 -13 -13 -13 -13 -13 -13 -13 -13 -13 -13 -13 -13 -13 -13 -12 -12 -12 -12 -12 -12 -12 -11 -11 -11 -11 -12 -12 -12 -12 -12 -12 -12 -12 -12 -12 -12 -12 -12 -13
-13 -13 -13 -13 -14 -14 -13 -13 -14 -13 -13 -13 -13 -13 -13 -13 -13 -13 -13 -12 -12 -12 -12 -12 -12 -12 -12 -12 -12 -12 -12 -12 -12 -12 -12 -12 -12 -12 -12 -12 -12 -13 -13
-13 -13 -13 -13 -13 -13 -13 -13 -13 -13 -13 -13 -13 -13 -13 -13 -13 -13 -13 -13 -13 -13 -12 -12 -12 -12 -12 -12 -12 -12 -12 -12 -12 -12 -12 -12 -12 -12 -12 -12 -12 -12 -12
-13 -13 -13 -13 -13 -13 -13 -13 -14 -14 -14 -13 -13 -13 -13 -13 -13 -13 -13 -13 -13 -13 -13 -12 -13 -13 -13 -13 -13 -13 -13 -13 -13 -13 -12 -12 -12 -12 -12 -13 -12 -12 -12
-13 -14 -13 -13 -13 -13 -13 -13 -13 -14 -14 -14 -14 -14 -13 -13 -13 -13 -13 -13 -13 -13 -13 -13 -13 -13 -13 -13 -13 -13 -13 -13 -13 -13 -13 -13 -13 -13 -13 -13 -13 -13 -13
-13 -14 -14 -13 -13 -13 -13 -13 -13 -14 -14 -14 -14 -14 -14 -14 -14 -13 -13 -13 -13 -13 -13 -13 -13 -13 -13 -13 -13 -14 -14 -13 -13 -13 -13 -13 -13 -13 -13 -13 -13 -13 -13
-14 -14 -14 -13 -13 -13 -13 -13 -13 -14 -14 -14 -14 -14 -14 -14 -14 -14 -14 -14 -14 -13 -13 -13 -13 -13 -13 -13 -13 -13 -14 -14 -14 -13 -13 -14 -14 -14 -13 -13 -13 -13 -13
-15 -15 -14 -14 -14 -14 -14 -14 -14 -14 -14 -14 -14 -14 -14 -15 -14 -14 -14 -14 -14 -14 -14 -14 -14 -14 -14 -14 -13 -14 -14 -14 -14 -14 -14 -14 -14 -14 -14 -14 -14 -14 -13
-15 -15 -15 -15 -15 -15 -14 -14 -15 -15 -15 -15 -15 -15 -15 -15 -15 -15 -15 -15 -15 -15 -15 -15 -15 -14 -14 -14 -14 -14 -14 -14 -13 -13 -15 -15 -15 -15 -14 -14 -14 -14 -14
-15 -15 -15 -16 -17 -17 -16 -15 -14 -15 -15 -15 -15 -15 -15 -15 -15 -15 -15 -15 -15 -15 -15 -15 -15 -15 -15 -15 -15 -15 -15 -14 -14 -14 -13 -15 -16 -16 -16 -15 -15 -15 -15
-15 -16 -16 -16 -17 -17 -17 -16 -15 -16 -16 -16 -16 -16 -16 -16 -16 -15 -15 -15 -15 -16 -16 -15 -15 -15 -15 -15 -15 -15 -16 -15 -15 -15 -14 -14 -14 -16 -16 -16 -16 -16 -15
Height
5855 5854 5853 5852 5850 5849 5846 5844 5843 5842 5839 5837 5836 5835 5833 5832 5831 5831 5830 5829 5828 5828 5827 5826 5825 5824 5822 5821 5820 5819 5818 5818 5817 5815 5813 5812 5811 5811 5811 5810 5809 5809 5808
5852 5851 5850 5850 5848 5846 5844 5843 5842 5839 5838 5835 5834 5833 5831 5830 5829 5828 5827 5827 5826 5825 5825 5824 5823 5822 5820 5819 5817 5816 5816 5814 5814 5813 5812 5811 5809 5809 5809 5807 5807 5806 5805
5849 5848 5847 5847 5845 5844 5841 5840 5838 5837 5835 5834 5831 5830 5829 5827 5825 5826 5825 5825 5824 5823 5823 5822 5820 5820 5818 5817 5815 5814 5813 5812 5811 5811 5809 5809 5808 5807 5806 5804 5803 5803 5802
5847 5846 5845 5844 5842 5840 5838 5836 5835 5834 5832 5830 5828 5826 5825 5824 5823 5823 5822 5822 5821 5821 5820 5819 5818 5817 5815 5814 5812 5811 5810 5809 5807 5807 5806 5805 5805 5804 5803 5802 5801 5800 5799
5842 5842 5841 5840 5838 5836 5835 5834 5832 5831 5829 5826 5825 5823 5821 5820 5820 5819 5818 5818 5817 5817 5817 5816 5815 5813 5812 5811 5809 5808 5806 5806 5805 5804 5803 5802 5802 5801 5800 5799 5798 5797 5796
5836 5835 5835 5834 5834 5832 5831 5829 5828 5826 5824 5823 5822 5821 5818 5817 5816 5816 5814 5813 5814 5813 5813 5812 5810 5810 5809 5808 5807 5806 5804 5803 5803 5801 5801 5800 5799 5799 5798 5796 5795 5794 5793
5830 5830 5830 5829 5828 5827 5826 5825 5823 5821 5820 5819 5818 5817 5815 5814 5814 5812 5811 5811 5810 5810 5809 5808 5807 5807 5806 5805 5804 5803 5802 5801 5801 5799 5798 5798 5797 5796 5795 5794 5793 5791 5790
5825 5824 5824 5823 5822 5821 5820 5820 5818 5817 5815 5814 5814 5812 5811 5810 5809 5808 5807 5807 5807 5806 5806 5805 5804 5803 5801 5800 5800 5800 5800 5800 5800 5798 5797 5796 5795 5794 5793 5792 5791 5789 5787
5819 5819 5818 5817 5817 5816 5815 5815 5813 5812 5810 5809 5807 5807 5806 5806 5805 5805 5804 5803 5802 5801 5802 5801 5799 5799 5798 5798 5798 5797 5797 5797 5797 5796 5795 5794 5793 5792 5791 5790 5789 5787 5785
5814 5813 5812 5812 5812 5811 5810 5808 5807 5806 5806 5805 5803 5802 5802 5801 5801 5800 5799 5798 5797 5796 5796 5796 5796 5795 5794 5795 5795 5795 5795 5795 5794 5794 5793 5792 5791 5790 5788 5787 5786 5785 5783
5810 5809 5807 5806 5805 5804 5803 5802 5800 5800 5801 5800 5799 5798 5798 5797 5796 5796 5795 5794 5792 5791 5791 5792 5792 5791 5791 5791 5792 5792 5792 5792 5791 5791 5790 5789 5787 5786 5785 5784 5784 5782 5781
5803 5802 5800 5798 5798 5797 5797 5795 5794 5794 5795 5795 5794 5794 5793 5793 5792 5790 5789 5788 5788 5787 5787 5787 5787 5787 5787 5788 5787 5788 5788 5788 5787 5787 5786 5785 5784 5783 5781 5780 5779 5778 5777
5796 5794 5793 5793 5791 5791 5790 5790 5788 5788 5788 5789 5789 5788 5787 5787 5786 5785 5784 5784 5783 5783 5784 5783 5783 5783 5783 5784 5784 5784 5784 5784 5783 5782 5781 5780 5780 5778 5776 5775 5774 5773 5773
5789 5788 5787 5786 5785 5785 5784 5785 5784 5782 5781 5781 5782 5782 5781 5781 5780 5779 5778 5779 5778 5778 5778 5779 5778 5778 5779 5779 5779 5778 5778 5778 5777 5776 5775 5775 5774 5773 5771 5769 5769 5768 5767
5782 5781 5778 5777 5777 5777 5777 5778 5778 5776 5776 5775 5775 5775 5775 5775 5774 5773 5773 5772 5772 5773 5772 5772 5772 5772 5773 5773 5773 5773 5773 5772 5771 5770 5769 5768 5768 5767 5767 5765 5762 5761 5761
5775 5773 5773 5769 5768 5768 5770 5771 5771 5771 5770 5769 5768 5768 5768 5767 5767 5767 5767 5766 5765 5765 5766 5765 5764 5765 5765 5765 5766 5766 5766 5765 5764 5764 5763 5762 5760 5760 5759 5758 5757 5755 5753
5767 5766 5766 5764 5761 5759 5760 5763 5765 5764 5763 5762 5761 5761 5760 5758 5759 5759 5759 5759 5758 5758 5758 5758 5757 5757 5757 5757 5757 5757 5757 5756 5756 5755 5755 5754 5754 5753 5751 5750 5751 5749 5747
5761 5759 5758 5756 5755 5754 5755 5755 5755 5754 5754 5754 5754 5754 5753 5752 5751 5751 5751 5752 5751 5752 5750 5750 5750 5750 5749 5749 5749 5748 5747 5747 5746 5746 5745 5745 5744 5744 5743 5743 5742 5742 5740
5754 5753 5750 5748 5747 5747 5747 5747 5746 5745 5745 5746 5746 5746 5745 5745 5744 5744 5742 5742 5743 5743 5742 5742 5742 5741 5741 5740 5740 5739 5738 5737 5736 5736 5735 5735 5734 5734 5734 5733 5732 5731 5731
5748 5746 5744 5741 5739 5739 5739 5739 5739 5738 5738 5737 5736 5736 5736 5736 5736 5737 5736 5735 5733 5733 5733 5734 5733 5732 5732 5731 5730 5729 5728 5727 5727 5726 5725 5725 5724 5723 5722 5721 5721 5720 5720
5741 5739 5737 5734 5732 5731 5731 5731 5730 5730 5729 5728 5728 5728 5728 5727 5727 5727 5727 5727 5726 5724 5723 5723 5723 5724 5723 5722 5722 5720 5719 5718 5716 5714 5714 5713 5712 5711 5709 5709 5708 5708 5708
5732 5730 5729 5726 5725 5723 5721 5721 5720 5720 5719 5719 5719 5718 5718 5717 5717 5717 5717 5716 5716 5714 5713 5712 5711 5711 5711 5710 5710 5710 5709 5707 5704 5703 5702 5699 5699 5696 5696 5695 5696 5695 5695
5723 5722 5720 5718 5715 5714 5713 5712 5711 5710 5709 5709 5709 5708 5707 5707 5706 5706 5705 5704 5703 5703 5702 5700 5699 5697 5696 5695 5695 5694 5694 5694 5693 5691 5688 5684 5684 5682 5681 5681 5680 5681 5681
5712 5711 5710 5708 5706 5705 5703 5703 5703 5702 5701 5700 5700 5699 5697 5696 5696 5695 5694 5692 5691 5690 5688 5688 5686 5684 5683 5681 5679 5678 5676 5676 5675 5678 5676 5671 5668 5666 5665 5663 5664 5665 5665
5702 5702 5701 5699 5697 5695 5693 5692 5692 5691 5690 5689 5689 5688 5687 5686 5685 5684 5683 5681 5679 5677 5675 5673 5670 5669 5667 5666 5663 5661 5660 5658 5656 5655 5657 5656 5654 5651 5650 5647 5644 5645 5646
5690 5690 5689 5688 5688 5685 5682 5679 5680 5680 5679 5679 5679 5678 5676 5674 5673 5671 5670 5669 5667 5665 5661 5659 5656 5653 5651 5649 5647 5644 5640 5639 5637 5635 5634 5633 5632 5633 5632 5632 5629 5627 5624
Wind_Speed
23 28 22 25 25 24 22 19 19 18 17 16 18 18 15 14 12 12 10 9 8 9 10 11 12 16 17 15 14 14 14 14 15 15 15 15 16 16 17 16 18 19 19
32 31 34 31 24 24 22 21 20 20 19 18 17 18 17 16 14 12 11 12 12 11 12 12 14 17 17 14 13 14 14 14 15 15 16 15 15 17 18 17 18 18 17
34 35 37 29 24 24 23 22 20 19 19 18 16 15 17 17 15 14 13 12 13 13 14 15 17 19 18 16 15 15 15 14 13 14 15 15 15 14 14 18 18 18 18
32 35 31 26 24 25 25 23 21 19 18 19 17 15 15 15 15 15 14 15 15 15 16 17 19 20 19 18 17 17 15 14 14 15 16 15 14 14 13 14 16 17 17
32 29 29 26 25 25 25 23 22 19 17 19 20 19 17 17 16 15 16 17 18 18 18 20 20 21 20 18 17 17 16 15 15 14 16 16 15 15 14 15 16 16 17
36 32 29 27 27 27 27 25 22 22 20 20 20 20 20 19 18 19 19 19 19 19 20 21 22 21 20 18 16 16 16 15 13 14 14 15 15 15 15 15 16 17 17
35 32 31 31 30 28 28 27 24 24 22 23 23 22 21 21 21 22 22 22 22 22 23 23 22 21 20 19 17 16 15 14 12 11 12 13 14 14 13 15 17 18 18
33 32 32 32 32 32 30 29 25 25 25 26 25 23 22 22 22 24 25 24 24 24 24 22 20 21 19 18 16 11 5 4 5 6 9 10 11 12 12 13 16 18 19
33 33 33 34 33 32 32 30 27 25 25 27 27 25 25 23 22 23 24 24 25 24 23 21 21 21 20 15 7 5 5 3 2 3 7 10 11 10 12 12 13 16 14
34 34 33 34 35 35 33 31 28 26 26 26 26 27 26 24 23 23 25 26 26 26 24 22 22 20 18 12 11 7 8 5 5 6 8 12 13 15 14 16 17 16 14
33 34 35 35 36 35 33 31 29 27 28 26 25 27 27 25 24 24 25 27 25 24 23 23 21 21 17 16 15 12 10 11 12 12 13 15 18 19 19 20 20 18 17
34 35 37 36 36 35 34 31 30 30 29 27 25 25 27 27 25 24 23 24 24 23 22 22 22 21 20 20 18 15 16 16 16 18 19 19 21 22 24 23 22 20 20
38 35 35 36 36 35 35 33 31 31 30 28 28 27 27 27 26 24 23 23 23 23 23 23 24 24 23 24 21 21 21 22 23 24 23 24 24 27 28 26 26 25 22
39 38 36 36 36 36 37 36 35 34 32 31 28 29 28 27 27 26 25 24 25 26 26 26 27 26 27 26 27 27 28 28 29 29 28 26 26 27 31 33 31 31 28
39 39 34 36 39 39 39 39 39 37 35 32 30 31 29 28 27 26 27 27 27 28 28 30 31 31 31 32 31 31 31 32 34 34 32 31 29 30 31 35 37 36 33
38 39 43 37 38 40 41 41 40 38 35 35 33 33 31 29 28 27 28 29 30 30 30 31 31 34 35 35 35 34 34 35 36 37 36 35 35 33 33 36 38 39 39
36 38 39 40 41 40 41 39 39 36 34 34 33 34 33 32 32 29 29 31 32 33 33 33 34 34 36 38 39 39 39 39 38 38 38 37 37 37 37 38 38 40 42
33 35 38 40 42 42 38 35 34 34 33 33 33 33 33 32 33 33 32 33 34 37 36 36 36 36 36 39 41 43 43 41 41 40 39 39 39 39 39 40 40 40 43
32 34 38 41 41 39 38 38 35 34 34 33 33 35 35 34 34 36 36 36 37 38 38 38 37 36 37 38 40 42 43 43 42 42 42 42 41 42 42 42 43 43 44
30 34 39 42 42 41 39 38 37 37 37 36 36 38 38 35 35 37 38 39 40 40 41 41 41 40 40 40 42 44 45 45 45 45 45 45 46 45 45 45 45 47 48
30 34 39 41 42 43 41 39 39 40 41 40 39 39 39 39 38 38 39 41 43 43 44 45 46 46 46 45 44 44 46 47 49 49 49 49 50 50 49 48 48 48 49
32 33 36 39 41 42 43 41 40 41 42 42 41 41 41 40 40 42 41 43 44 44 45 46 48 49 50 49 48 48 49 51 52 52 52 53 52 54 53 53 52 51 51
32 33 36 38 41 41 43 43 43 44 44 43 43 43 43 43 44 44 44 45 47 47 48 48 49 50 51 53 53 53 53 52 52 54 58 61 60 58 56 55 56 56 56
32 31 30 33 38 42 45 45 45 45 45 45 46 46 46 47 47 48 48 49 50 51 51 52 52 53 54 54 56 59 62 64 64 61 55 57 59 61 62 61 59 59 60
40 36 35 35 37 41 46 50 49 48 48 48 49 49 49 50 51 52 53 53 53 54 56 57 58 60 61 62 62 63 65 67 69 70 68 63 60 61 63 66 67 65 64
40 37 38 37 37 42 50 53 50 47 48 50 50 50 51 53 55 55 58 60 62 62 63 64 65 66 68 70 70 69 69 69 69 70 70 71 71 62 62 64 66 68 69
Wind_Direction
297 304 297 296 296 293 303 314 317 319 318 307 293 289 292 294 293 294 286 288 294 303 309 311 317 326 327 320 314 313 311 308 306 308 311 299 284 280 278 278 277 277 284
302 303 303 298 291 291 301 313 316 319 318 317 305 300 294 284 281 281 279 280 282 290 297 305 314 323 320 311 309 304 298 298 297 298 300 304 299 287 281 278 280 283 290
302 296 302 296 289 290 302 313 317 319 315 310 308 304 301 291 280 273 272 272 276 285 296 303 310 314 314 307 303 297 290 281 277 274 278 287 293 297 293 284 286 290 293
294 291 291 289 293 300 307 312 315 314 305 303 298 294 292 287 280 273 270 270 273 281 288 295 302 307 307 301 297 291 286 285 282 278 278 281 286 289 294 291 291 293 295
298 292 283 286 291 298 304 308 309 304 299 299 293 285 280 277 273 267 265 265 268 276 282 290 296 298 296 292 288 287 288 289 288 284 283 285 287 291 296 292 291 296 299
292 291 287 285 288 294 297 301 305 299 301 297 290 283 277 279 276 269 263 263 269 274 281 285 290 291 291 289 285 284 285 287 292 292 291 292 293 291 291 290 292 299 305
293 294 292 291 293 293 296 298 301 300 302 302 288 283 283 277 275 275 276 274 273 276 279 283 287 288 288 288 286 286 288 290 295 301 307 308 306 306 305 299 296 300 302
286 287 289 291 293 296 297 297 299 299 306 304 293 286 281 278 276 274 272 273 276 276 277 281 282 280 277 276 282 286 291 88 38 29 14 18 11 1 346 319 305 302 306
286 289 291 292 295 295 294 296 298 299 301 300 291 290 286 282 277 278 277 275 273 275 277 277 276 273 272 276 238 191 193 204 354 3 349 354 348 342 345 349 356 353 335
287 289 292 294 295 293 294 296 297 296 297 297 283 286 287 283 280 279 278 276 272 268 269 271 270 265 268 244 214 230 254 265 305 320 327 328 329 325 325 335 340 329 336
291 292 291 290 290 290 292 294 294 294 295 295 281 281 285 281 278 277 277 275 272 271 267 266 262 263 250 228 229 250 252 256 280 292 299 308 310 311 309 316 320 325 321
290 289 287 289 291 291 289 291 290 291 294 293 283 279 282 280 281 277 275 273 270 268 264 260 258 255 239 230 239 253 257 265 269 279 288 294 295 295 297 296 304 310 316
288 285 285 288 290 288 285 287 288 289 291 290 283 280 280 278 282 277 273 273 272 271 267 263 263 252 240 239 246 253 260 266 273 278 279 284 288 290 290 291 294 297 305
285 285 287 287 288 287 286 286 286 286 287 285 281 277 275 273 276 271 268 267 268 267 266 268 270 253 242 245 248 257 262 267 271 273 274 277 281 284 286 289 287 289 292
281 279 276 280 284 283 282 284 285 285 287 288 283 276 273 274 272 267 265 265 266 264 265 265 270 258 252 251 254 256 263 267 272 273 274 275 277 280 282 282 284 284 286
279 279 280 277 280 282 282 283 284 285 288 285 281 278 277 278 272 266 264 264 265 261 265 265 265 259 255 254 254 259 264 267 272 275 275 275 277 278 278 280 279 279 281
283 283 281 282 281 279 281 283 284 285 284 281 280 279 277 277 273 266 265 265 263 261 264 266 265 265 258 256 258 262 266 267 267 269 271 272 274 275 277 277 277 278 279
275 275 279 279 281 282 281 280 276 276 276 274 274 273 273 273 270 269 267 267 266 266 266 265 263 263 265 265 265 265 265 266 268 268 268 269 271 272 273 274 273 274 277
271 273 273 275 277 277 277 274 271 273 273 272 271 272 272 270 266 265 265 267 267 268 267 265 262 260 261 262 263 265 268 270 270 271 272 272 273 275 273 272 270 270 270
266 264 265 270 273 274 275 276 278 277 276 274 271 270 270 268 264 264 263 263 265 266 265 263 262 261 261 264 266 268 269 270 272 272 272 272 274 275 274 274 272 269 268
260 260 264 268 269 273 276 279 279 278 277 276 275 275 274 271 267 264 264 265 265 265 264 263 264 264 264 265 265 268 270 272 273 273 273 273 274 275 273 273 272 269 266
265 266 266 269 270 272 275 277 276 276 276 278 279 278 277 274 272 272 273 272 271 270 267 266 267 267 267 267 269 270 271 275 275 273 272 272 272 272 273 272 270 267 265
266 261 261 265 269 271 273 273 274 275 275 276 277 277 277 278 277 276 275 275 275 273 272 271 270 270 270 271 271 271 270 270 271 274 276 276 274 272 272 270 268 266 265
258 259 257 260 265 269 272 272 272 274 275 276 276 276 277 277 278 277 276 277 276 276 274 274 274 274 275 276 275 275 275 274 273 272 271 271 271 272 271 268 265 264 264
262 258 256 257 262 268 270 271 272 272 272 273 275 276 277 278 278 279 280 280 280 279 279 279 280 280 279 278 278 278 278 279 278 277 274 271 268 265 265 268 268 266 261
264 261 258 258 258 262 265 267 269 269 270 271 272 272 274 276 277 279 282 283 283 283 282 281 281 280 280 281 282 282 281 280 279 278 276 275 275 269 265 263 261 263 264